Time,TemperatureF,DewpointF,PressureIn,WindDirection,WindDirectionDegrees,WindSpeedMPH,WindSpeedGustMPH,Humidity,HourlyPrecipIn,Conditions,Clouds,dailyrainin,SoftwareType,DateUTC
2013-10-09 00:06:00,54.5,51.0,30.13,West,264,0.0,4.0,87,0.00,,,0.00,weatherlink.com 1.10,2013-10-08 23:06:00,
2013-10-09 00:21:00,54.2,51.0,30.12,WNW,287,6.0,6.0,87,0.00,,,0.00,weatherlink.com 1.10,2013-10-08 23:21:00,
2013-10-09 00:36:00,54.0,50.0,30.13,SW,214,1.0,7.0,87,0.00,,,0.00,weatherlink.com 1.10,2013-10-08 23:36:00,
2013-10-09 00:51:00,53.8,49.0,30.13,WSW,243,7.0,9.0,84,0.00,,,0.00,weatherlink.com 1.10,2013-10-08 23:51:00,
2013-10-09 01:06:00,53.7,48.0,30.13,ESE,122,2.0,9.0,82,0.00,,,0.00,weatherlink.com 1.10,2013-10-09 00:06:00,
2013-10-09 01:21:00,53.6,48.0,30.12,WSW,257,2.0,7.0,81,0.00,,,0.00,weatherlink.com 1.10,2013-10-09 00:21:00,
2013-10-09 01:36:00,53.4,48.0,30.12,North,8,2.0,7.0,81,0.00,,,0.00,weatherlink.com 1.10,2013-10-09 00:36:00,
2013-10-09 01:51:00,53.0,47.0,30.12,WSW,245,1.0,5.0,81,0.00,,,0.00,weatherlink.com 1.10,2013-10-09 00:51:00,
2013-10-09 02:06:00,52.7,47.0,30.12,WNW,285,3.0,6.0,82,0.00,,,0.00,weatherlink.com 1.10,2013-10-09 01:06:00,
2013-10-09 02:21:00,52.6,47.0,30.12,WNW,295,2.0,7.0,82,0.00,,,0.00,weatherlink.com 1.10,2013-10-09 01:21:00,
2013-10-09 02:36:00,52.6,47.0,30.12,WSW,252,1.0,6.0,82,0.00,,,0.00,weatherlink.com 1.10,2013-10-09 01:36:00,
2013-10-09 02:51:00,52.7,47.0,30.11,WSW,252,2.0,7.0,82,0.00,,,0.00,weatherlink.com 1.10,2013-10-09 01:51:00,
2013-10-09 03:06:00,52.6,47.0,30.11,West,274,1.0,7.0,81,0.00,,,0.00,weatherlink.com 1.10,2013-10-09 02:06:00,
2013-10-09 03:21:00,52.6,47.0,30.10,West,271,3.0,8.0,81,0.00,,,0.00,weatherlink.com 1.10,2013-10-09 02:21:00,
2013-10-09 03:36:00,52.6,47.0,30.10,SW,228,2.0,6.0,81,0.00,,,0.00,weatherlink.com 1.10,2013-10-09 02:36:00,
2013-10-09 03:51:00,52.5,47.0,30.12,WSW,253,1.0,7.0,81,0.00,,,0.00,weatherlink.com 1.10,2013-10-09 02:51:00,
2013-10-09 04:06:00,52.4,47.0,30.09,WSW,238,3.0,11.0,82,0.00,,,0.00,weatherlink.com 1.10,2013-10-09 03:06:00,
2013-10-09 04:21:00,52.4,47.0,30.09,WNW,302,2.0,11.0,82,0.00,,,0.00,weatherlink.com 1.10,2013-10-09 03:21:00,
2013-10-09 04:37:00,52.3,47.0,30.08,West,271,3.0,8.0,83,0.00,,,0.00,weatherlink.com 1.10,2013-10-09 03:37:00,
2013-10-09 04:52:00,52.2,47.0,30.09,West,262,3.0,10.0,83,0.00,,,0.00,weatherlink.com 1.10,2013-10-09 03:52:00,
2013-10-09 05:07:00,52.1,47.0,30.08,West,278,4.0,7.0,84,0.00,,,0.00,weatherlink.com 1.10,2013-10-09 04:07:00,
2013-10-09 05:22:00,51.8,48.0,30.09,SSE,157,0.0,9.0,85,0.00,,,0.00,weatherlink.com 1.10,2013-10-09 04:22:00,
2013-10-09 05:38:00,51.5,47.0,30.08,West,262,1.0,9.0,85,0.00,,,0.00,weatherlink.com 1.10,2013-10-09 04:38:00,
2013-10-09 05:52:00,51.3,47.0,30.08,West,273,9.0,10.0,86,0.00,,,0.00,weatherlink.com 1.10,2013-10-09 04:52:00,
2013-10-09 06:07:00,51.3,47.0,30.08,West,277,2.0,9.0,86,0.00,,,0.00,weatherlink.com 1.10,2013-10-09 05:07:00,
2013-10-09 06:22:00,51.4,47.0,30.08,WSW,250,4.0,12.0,86,0.00,,,0.00,weatherlink.com 1.10,2013-10-09 05:22:00,
2013-10-09 06:37:00,51.3,47.0,30.07,WSW,239,1.0,10.0,84,0.00,,,0.00,weatherlink.com 1.10,2013-10-09 05:37:00,
2013-10-09 06:52:00,50.9,47.0,30.07,WSW,248,5.0,8.0,85,0.00,,,0.00,weatherlink.com 1.10,2013-10-09 05:52:00,
2013-10-09 07:07:00,50.9,47.0,30.07,WSW,249,1.0,8.0,85,0.00,,,0.00,weatherlink.com 1.10,2013-10-09 06:07:00,
2013-10-09 07:22:00,51.1,47.0,30.07,West,274,2.0,8.0,85,0.00,,,0.00,weatherlink.com 1.10,2013-10-09 06:22:00,
2013-10-09 07:37:00,51.3,47.0,30.07,WNW,298,7.0,10.0,84,0.00,,,0.00,weatherlink.com 1.10,2013-10-09 06:37:00,
2013-10-09 07:52:00,51.6,47.0,30.07,WNW,295,2.0,8.0,84,0.00,,,0.00,weatherlink.com 1.10,2013-10-09 06:52:00,
2013-10-09 08:07:00,51.8,47.0,30.06,NW,314,6.0,10.0,84,0.00,,,0.00,weatherlink.com 1.10,2013-10-09 07:07:00,
2013-10-09 08:22:00,52.2,47.0,30.06,West,279,3.0,7.0,81,0.00,,,0.00,weatherlink.com 1.10,2013-10-09 07:22:00,
2013-10-09 08:37:00,52.4,46.0,30.06,West,262,6.0,12.0,80,0.00,,,0.00,weatherlink.com 1.10,2013-10-09 07:37:00,
2013-10-09 08:52:00,52.8,47.0,30.05,NW,312,8.0,10.0,80,0.00,,,0.00,weatherlink.com 1.10,2013-10-09 07:52:00,
2013-10-09 09:07:00,53.0,47.0,30.04,NNE,18,4.0,11.0,80,0.00,,,0.00,weatherlink.com 1.10,2013-10-09 08:07:00,
2013-10-09 09:22:00,53.2,47.0,30.04,West,259,6.0,11.0,80,0.00,,,0.00,weatherlink.com 1.10,2013-10-09 08:22:00,
2013-10-09 09:37:00,53.4,47.0,30.03,West,264,8.0,12.0,80,0.00,,,0.00,weatherlink.com 1.10,2013-10-09 08:37:00,
2013-10-09 09:52:00,53.4,48.0,30.03,WNW,287,3.0,11.0,81,0.00,,,0.00,weatherlink.com 1.10,2013-10-09 08:52:00,
2013-10-09 10:07:00,53.6,48.0,30.03,WNW,285,6.0,11.0,81,0.00,,,0.00,weatherlink.com 1.10,2013-10-09 09:07:00,
2013-10-09 10:22:00,53.7,48.0,30.03,West,267,1.0,9.0,81,0.00,,,0.00,weatherlink.com 1.10,2013-10-09 09:22:00,
2013-10-09 10:37:00,53.8,48.0,30.03,SW,236,5.0,11.0,81,0.00,,,0.00,weatherlink.com 1.10,2013-10-09 09:37:00,
2013-10-09 10:52:00,54.0,48.0,30.03,South,187,4.0,13.0,81,0.00,,,0.00,weatherlink.com 1.10,2013-10-09 09:52:00,
2013-10-09 11:07:00,54.4,48.0,30.02,West,275,6.0,13.0,80,0.00,,,0.00,weatherlink.com 1.10,2013-10-09 10:07:00,
2013-10-09 11:22:00,54.8,49.0,30.02,SW,226,4.0,13.0,80,0.00,,,0.00,weatherlink.com 1.10,2013-10-09 10:22:00,
2013-10-09 11:37:00,54.1,49.0,30.03,SW,219,2.0,10.0,83,0.00,,,0.00,weatherlink.com 1.10,2013-10-09 10:37:00,
2013-10-09 11:52:00,53.3,50.0,30.03,West,263,3.0,13.0,87,0.00,,,0.00,weatherlink.com 1.10,2013-10-09 10:52:00,
2013-10-09 12:07:00,53.2,49.0,30.03,SW,236,5.0,17.0,86,0.00,,,0.00,weatherlink.com 1.10,2013-10-09 11:07:00,
2013-10-09 12:22:00,53.1,49.0,30.03,West,266,2.0,9.0,87,0.00,,,0.00,weatherlink.com 1.10,2013-10-09 11:22:00,
2013-10-09 12:37:00,53.3,48.0,30.02,NW,306,4.0,10.0,83,0.00,,,0.00,weatherlink.com 1.10,2013-10-09 11:37:00,
2013-10-09 12:52:00,53.5,47.0,30.02,North,356,2.0,9.0,79,0.00,,,0.00,weatherlink.com 1.10,2013-10-09 11:52:00,
2013-10-09 13:08:00,54.5,47.0,30.02,NE,47,3.0,12.0,76,0.00,,,0.00,weatherlink.com 1.10,2013-10-09 12:08:00,
2013-10-09 13:23:00,54.9,46.0,30.02,NNE,12,2.0,12.0,71,0.00,,,0.00,weatherlink.com 1.10,2013-10-09 12:23:00,
2013-10-09 13:38:00,56.1,44.0,30.01,WSW,246,5.0,13.0,65,0.00,,,0.00,weatherlink.com 1.10,2013-10-09 12:38:00,
2013-10-09 13:53:00,56.0,44.0,30.01,NW,315,4.0,14.0,65,0.00,,,0.00,weatherlink.com 1.10,2013-10-09 12:53:00,
2013-10-09 14:08:00,55.8,44.0,30.01,NNE,13,5.0,18.0,65,0.00,,,0.00,weatherlink.com 1.10,2013-10-09 13:08:00,
2013-10-09 14:23:00,54.7,44.0,30.02,NW,316,4.0,12.0,67,0.00,,,0.00,weatherlink.com 1.10,2013-10-09 13:23:00,
2013-10-09 14:38:00,54.0,44.0,30.03,SW,236,4.0,10.0,69,0.00,,,0.00,weatherlink.com 1.10,2013-10-09 13:38:00,
2013-10-09 14:53:00,53.9,43.0,30.02,WNW,298,2.0,11.0,68,0.00,,,0.00,weatherlink.com 1.10,2013-10-09 13:53:00,
2013-10-09 15:08:00,54.8,44.0,30.02,NE,45,3.0,13.0,66,0.00,,,0.00,weatherlink.com 1.10,2013-10-09 14:08:00,
2013-10-09 15:23:00,55.5,43.0,30.01,NW,319,2.0,12.0,64,0.00,,,0.00,weatherlink.com 1.10,2013-10-09 14:23:00,
2013-10-09 15:38:00,54.6,39.0,30.02,NW,304,9.0,18.0,57,0.00,,,0.00,weatherlink.com 1.10,2013-10-09 14:38:00,
2013-10-09 15:53:00,55.8,41.0,30.01,NNW,344,6.0,12.0,59,0.00,,,0.00,weatherlink.com 1.10,2013-10-09 14:53:00,
2013-10-09 16:08:00,53.7,40.0,30.02,SSE,164,7.0,15.0,61,0.00,,,0.00,weatherlink.com 1.10,2013-10-09 15:08:00,
2013-10-09 16:23:00,53.4,40.0,30.02,NNW,347,9.0,12.0,62,0.00,,,0.00,weatherlink.com 1.10,2013-10-09 15:23:00,
2013-10-09 16:38:00,53.5,39.0,30.02,NNE,18,9.0,14.0,58,0.00,,,0.00,weatherlink.com 1.10,2013-10-09 15:38:00,
2013-10-09 16:53:00,53.2,40.0,30.02,North,4,5.0,13.0,61,0.00,,,0.00,weatherlink.com 1.10,2013-10-09 15:53:00,
2013-10-09 17:01:00,-999.0,-99.9,0.00,North,-999,-999.0,-999.0,-999,0.00,,,0.00,weatherlink.com 1.10,2013-10-09 16:01:00,
2013-10-09 17:16:00,53.0,41.0,30.03,ENE,58,2.0,9.0,63,0.00,,,0.00,weatherlink.com 1.10,2013-10-09 16:16:00,
2013-10-09 17:31:00,52.2,38.0,30.03,NE,36,6.0,11.0,59,0.00,,,0.00,weatherlink.com 1.10,2013-10-09 16:31:00,
2013-10-09 17:46:00,52.2,37.0,30.03,North,1,6.0,15.0,57,0.00,,,0.00,weatherlink.com 1.10,2013-10-09 16:46:00,
2013-10-09 18:01:00,51.9,36.0,30.04,North,10,12.0,13.0,56,0.00,,,0.00,weatherlink.com 1.10,2013-10-09 17:01:00,
2013-10-09 18:16:00,50.8,36.0,30.05,NE,42,6.0,11.0,57,0.00,,,0.00,weatherlink.com 1.10,2013-10-09 17:16:00,
2013-10-09 18:31:00,49.9,36.0,30.05,NNW,328,3.0,11.0,60,0.00,,,0.00,weatherlink.com 1.10,2013-10-09 17:31:00,
2013-10-09 18:46:00,49.4,36.0,30.05,SW,219,2.0,14.0,61,0.00,,,0.00,weatherlink.com 1.10,2013-10-09 17:46:00,
2013-10-09 19:01:00,49.0,36.0,30.06,West,271,2.0,10.0,62,0.00,,,0.00,weatherlink.com 1.10,2013-10-09 18:01:00,
2013-10-09 19:16:00,48.5,37.0,30.05,SW,218,2.0,6.0,64,0.00,,,0.00,weatherlink.com 1.10,2013-10-09 18:16:00,
2013-10-09 19:31:00,48.2,37.0,30.05,WSW,255,3.0,7.0,66,0.00,,,0.00,weatherlink.com 1.10,2013-10-09 18:31:00,
2013-10-09 19:46:00,47.7,38.0,30.06,West,277,2.0,6.0,70,0.00,,,0.00,weatherlink.com 1.10,2013-10-09 18:46:00,
2013-10-09 20:01:00,47.2,38.0,30.07,West,276,2.0,7.0,70,0.00,,,0.00,weatherlink.com 1.10,2013-10-09 19:01:00,
2013-10-09 20:16:00,47.0,38.0,30.07,WSW,253,2.0,8.0,71,0.00,,,0.00,weatherlink.com 1.10,2013-10-09 19:16:00,
2013-10-09 20:32:00,46.5,38.0,30.08,West,269,3.0,8.0,73,0.00,,,0.00,weatherlink.com 1.10,2013-10-09 19:32:00,
2013-10-09 20:47:00,46.4,39.0,30.08,WSW,239,0.0,7.0,75,0.00,,,0.00,weatherlink.com 1.10,2013-10-09 19:47:00,
2013-10-09 21:02:00,46.0,39.0,30.09,WSW,249,0.0,8.0,76,0.00,,,0.00,weatherlink.com 1.10,2013-10-09 20:02:00,
2013-10-09 21:17:00,45.8,39.0,30.09,WSW,257,1.0,5.0,76,0.00,,,0.00,weatherlink.com 1.10,2013-10-09 20:17:00,
2013-10-09 21:32:00,45.3,39.0,30.09,WSW,253,2.0,7.0,78,0.00,,,0.00,weatherlink.com 1.10,2013-10-09 20:32:00,
2013-10-09 21:47:00,44.9,39.0,30.09,SW,222,2.0,6.0,79,0.00,,,0.00,weatherlink.com 1.10,2013-10-09 20:47:00,
2013-10-09 22:02:00,44.6,39.0,30.09,WSW,250,0.0,6.0,80,0.00,,,0.00,weatherlink.com 1.10,2013-10-09 21:02:00,
2013-10-09 22:17:00,44.2,39.0,30.09,SW,233,4.0,6.0,82,0.00,,,0.00,weatherlink.com 1.10,2013-10-09 21:17:00,
2013-10-09 22:32:00,44.0,39.0,30.09,WSW,245,2.0,5.0,82,0.00,,,0.00,weatherlink.com 1.10,2013-10-09 21:32:00,
2013-10-09 22:47:00,43.9,39.0,30.10,WNW,294,4.0,6.0,83,0.00,,,0.00,weatherlink.com 1.10,2013-10-09 21:47:00,
2013-10-09 23:02:00,43.9,39.0,30.10,WSW,250,4.0,7.0,83,0.00,,,0.00,weatherlink.com 1.10,2013-10-09 22:02:00,
2013-10-09 23:17:00,43.9,39.0,30.10,NW,315,2.0,7.0,83,0.00,,,0.00,weatherlink.com 1.10,2013-10-09 22:17:00,
2013-10-09 23:32:00,43.5,39.0,30.10,WSW,252,2.0,4.0,84,0.00,,,0.00,weatherlink.com 1.10,2013-10-09 22:32:00,
2013-10-09 23:47:00,43.4,39.0,30.10,West,262,5.0,5.0,84,0.00,,,0.00,weatherlink.com 1.10,2013-10-09 22:47:00,